Wind_Speed
11 11 11 12 12 12 13 13 13 13 14 14 14 15 15 15 16 16 16 17 17 17 18 18 18 19 19 20 20 20 21 21 21 22 22 22 22 23 23 23 23 24 24
11 11 12 12 13 13 14 14 14 15 15 15 15 16 16 17 17 17 18 18 18 19 19 19 20 20 21 21 21 21 22 22 22 23 23 23 24 24 24 24 24 25 25
11 11 12 12 13 13 14 14 14 15 15 16 16 16 17 17 17 18 19 19 19 20 20 20 21 21 22 22 22 22 23 23 23 23 23 24 24 24 25 25 25 25 25
11 11 11 12 12 13 14 14 14 15 15 16 17 17 18 18 19 19 20 20 21 21 21 21 22 22 22 23 23 23 23 23 24 24 24 24 24 24 25 25 25 25 26
11 11 11 12 12 12 13 14 14 15 16 17 18 18 19 19 20 20 20 21 21 21 22 22 22 22 22 22 23 23 23 24 24 24 25 25 25 25 25 25 26 26 26
11 11 11 12 12 13 14 14 15 16 17 17 18 19 19 19 20 20 21 21 22 22 22 22 22 23 23 23 23 23 24 24 25 25 25 25 25 25 26 26 26 26 26
11 12 12 13 14 14 15 16 16 17 18 18 19 19 20 20 20 21 21 22 22 22 22 23 23 24 24 24 24 25 25 25 25 26 26 26 26 27 27 27 27 27 27
12 12 13 13 14 14 15 16 17 18 18 19 19 20 20 21 21 21 21 21 22 22 23 24 24 24 25 25 26 26 26 27 27 27 27 28 28 28 29 29 29 29 29
13 13 14 14 15 16 17 17 18 19 19 20 20 21 21 21 21 21 22 22 23 23 24 24 25 25 26 26 27 27 28 28 29 29 29 29 30 30 30 31 31 31 31
14 15 16 16 17 17 18 19 19 20 20 21 21 21 22 22 22 23 23 23 24 24 25 25 26 26 27 27 27 28 28 29 29 30 31 31 32 32 32 32 33 33 33
14 15 16 17 17 18 19 19 20 20 21 22 22 23 23 23 23 24 24 24 25 26 26 26 27 27 27 28 28 29 29 29 30 31 31 32 32 33 34 34 35 35 36
15 16 17 18 18 19 20 20 21 22 22 23 23 24 24 24 24 24 25 25 26 26 26 27 27 28 28 29 29 30 30 30 31 31 32 32 33 34 34 35 36 37 37
17 18 18 19 20 21 21 22 23 23 23 24 24 24 25 25 25 26 26 26 27 27 27 27 28 28 29 30 30 31 31 31 32 32 32 33 33 34 35 35 36 37 38
20 20 20 21 22 22 23 23 24 24 25 25 26 26 26 26 26 27 27 27 27 28 28 28 29 29 30 30 31 31 32 33 33 34 34 34 34 35 36 36 37 37 38
22 22 22 23 23 24 25 25 25 26 26 27 27 27 27 27 27 28 28 28 28 28 29 29 29 30 30 31 32 33 33 34 34 35 35 35 36 36 37 37 38 39 39
24 24 24 24 25 26 26 26 27 27 28 28 28 28 28 28 28 28 28 28 28 29 29 30 30 31 32 33 33 34 35 35 36 36 36 37 37 37 37 38 39 39 40
26 26 26 26 26 27 27 28 28 29 29 29 29 29 29 29 29 29 29 29 29 30 30 31 32 32 33 34 35 35 36 36 37 37 37 37 38 38 38 39 39 40 41
27 27 28 28 27 28 28 29 29 30 30 30 30 30 30 30 29 29 30 30 31 31 31 32 33 34 34 35 36 36 37 37 37 38 38 38 39 39 40 40 41 41 42
29 29 29 29 29 30 30 30 31 31 31 31 31 31 31 31 31 31 31 31 32 32 33 34 34 35 36 37 37 38 38 38 39 39 40 40 41 41 42 42 43 43 44
31 31 31 31 31 31 31 31 32 32 32 32 31 32 32 32 31 31 32 32 33 34 35 35 36 37 37 38 38 39 39 40 41 41 42 42 43 43 44 44 45 46 46
32 32 32 32 32 32 32 32 32 32 32 32 32 32 32 32 32 33 33 34 35 35 36 37 38 38 38 39 40 40 41 41 42 43 43 44 45 45 46 47 47 48 49
33 33 32 32 32 33 33 33 33 33 33 33 33 33 33 33 34 34 35 36 37 37 38 39 39 40 40 41 41 41 41 41 43 44 45 46 47 48 48 49 50 51 51
34 34 33 33 33 33 33 33 34 34 34 34 34 34 34 34 35 36 37 37 38 39 40 40 41 42 42 43 43 43 43 42 42 43 45 47 48 50 51 51 52 53 54
34 34 34 34 33 33 34 34 34 34 34 34 34 34 35 35 36 37 38 39 40 40 41 42 43 43 44 44 44 45 45 45 45 44 44 47 48 50 51 53 54 55 56
35 34 34 33 33 34 34 34 34 34 34 34 34 35 35 36 37 38 39 40 41 42 43 43 44 44 45 46 46 47 47 48 48 48 47 48 49 50 51 53 54 55 57
34 34 34 34 34 34 33 33 33 34 34 34 35 35 36 37 38 39 40 42 43 43 44 45 45 46 47 47 48 48 49 49 50 51 51 50 50 50 51 53 54 56 57
Wind_Direction
233 237 241 245 249 252 255 258 260 263 265 268 270 272 273 275 277 279 280 281 282 283 284 285 286 286 286 287 287 287 286 286 285 284 284 283 282 281 280 278 277 275 273
237 241 245 251 254 256 259 262 264 267 270 272 273 274 276 277 279 280 282 283 284 285 286 286 286 287 287 287 287 286 286 286 285 285 285 284 283 282 281 280 278 277 275
241 247 252 256 259 261 263 265 268 271 273 276 277 278 279 280 281 282 284 285 286 287 288 288 288 289 289 289 289 288 288 287 287 286 285 285 284 283 282 281 279 278 277
246 251 255 259 262 264 266 268 271 274 276 278 279 281 282 283 284 284 285 286 286 287 287 287 288 288 289 289 289 289 289 289 289 288 288 287 285 284 283 282 281 279 278
249 253 256 261 264 267 270 272 274 276 278 279 280 281 283 283 284 284 285 286 286 286 287 287 287 288 288 289 289 289 288 288 288 288 288 287 286 285 284 283 282 280 279
252 255 258 263 267 271 273 275 277 279 280 281 282 282 283 284 284 285 285 286 287 287 287 288 288 288 288 288 288 288 288 287 287 287 286 286 285 284 283 282 282 281 279
255 259 263 266 269 272 275 278 280 281 282 282 283 283 284 284 285 285 286 286 286 287 287 288 288 288 288 288 287 287 287 286 286 286 285 285 284 283 283 282 281 280 279
258 261 264 267 270 273 277 279 281 282 283 283 284 284 284 284 284 285 285 286 286 286 287 287 287 287 287 287 287 286 286 286 285 285 284 284 283 282 281 280 280 279 278
261 263 267 269 272 275 278 280 281 281 282 283 283 284 284 284 284 285 286 286 287 287 287 287 287 287 287 287 286 286 285 285 284 284 283 283 282 281 280 279 278 277 276
265 267 270 271 273 275 277 279 280 282 282 283 283 283 283 284 284 285 286 286 287 287 288 288 288 287 287 287 286 286 285 285 284 283 283 282 281 280 280 279 277 276 275
268 270 272 273 275 277 278 280 281 282 282 283 284 284 284 284 285 285 286 286 287 287 288 288 288 288 287 287 287 286 286 285 284 284 283 282 281 280 279 278 277 276 275
270 272 274 276 277 279 280 281 282 282 283 284 285 285 285 284 285 286 286 287 287 288 288 288 289 288 288 288 287 287 286 286 285 285 284 283 282 281 280 279 277 276 276
273 274 276 277 279 280 280 282 283 283 283 284 285 285 285 284 285 286 287 288 288 288 288 289 289 290 290 289 289 288 287 286 286 285 285 284 283 282 280 279 278 276 275
275 277 278 279 279 280 281 282 283 283 284 285 285 285 284 284 285 286 288 288 289 289 290 290 290 291 291 290 290 289 288 287 286 285 284 283 282 281 280 280 279 278 276
276 278 279 279 280 280 281 282 283 283 283 284 285 285 284 283 284 285 287 288 289 290 290 291 291 292 291 291 290 290 289 288 287 286 285 284 283 282 280 280 279 278 277
276 277 279 279 280 280 281 282 282 283 283 283 284 284 283 283 284 285 287 288 289 289 290 291 291 291 291 291 291 290 290 289 288 287 286 285 284 282 282 281 280 279 278
275 276 278 279 280 280 281 282 282 282 283 283 283 283 283 283 284 286 287 289 289 290 290 291 292 292 292 292 292 291 291 290 290 289 288 286 285 284 282 282 281 280 279
274 275 277 278 279 280 281 282 282 282 282 282 282 283 283 284 285 286 287 288 290 290 291 292 293 293 294 294 294 293 293 292 291 290 289 288 287 286 285 284 283 282 281
273 275 276 277 278 280 280 281 282 282 282 282 282 282 282 283 285 286 287 289 290 291 292 293 294 294 295 295 294 294 293 293 292 291 290 289 288 287 287 286 285 284 282
271 273 275 276 278 279 280 280 281 282 281 281 281 282 282 283 284 286 288 289 291 292 293 294 294 295 295 295 294 294 294 293 292 291 291 290 289 288 287 287 286 284 283
270 273 274 276 277 278 279 279 280 281 281 281 281 282 282 283 285 287 288 290 291 292 293 294 295 295 295 295 294 294 293 293 292 291 291 290 290 289 288 288 286 285 284
270 272 273 274 276 277 277 278 279 280 281 280 280 281 282 283 285 287 288 290 291 293 294 295 295 296 295 295 294 293 292 292 292 292 292 291 291 290 290 289 288 287 285
270 271 272 273 274 275 276 278 279 279 280 280 280 281 282 284 286 288 289 291 292 293 294 295 296 296 296 296 295 294 292 291 290 291 291 291 291 291 290 289 289 288 287
270 270 270 272 274 275 276 277 278 279 279 279 280 281 283 285 287 289 290 291 293 294 295 296 296 296 296 296 295 295 294 293 291 290 289 290 290 289 289 289 288 288 287
269 269 270 272 273 274 275 275 277 278 279 280 281 282 284 286 288 289 291 293 294 295 296 296 296 296 296 296 295 295 295 294 294 293 291 290 290 289 289 288 288 288 287
268 268 270 271 273 274 274 275 276 277 279 280 281 283 285 286 288 290 292 294 295 296 296 296 296 296 296 296 296 295 295 295 294 294 293 292 291 291 290 290 289 288 288
Height
5885 5885 5886 5886 5886 5886 5886 5886 5886 5886 5886 5885 5885 5885 5884 5884 5883 5883 5882 5882 5881 5880 5879 5878 5877 5876 5875 5874 5874 5873 5872 5871 5870 5869 5868 5868 5867 5866 5865 5865 5864 5863 5863
5884 5884 5884 5884 5884 5884 5884 5884 5884 5884 5884 5883 5883 5883 5882 5882 5881 5880 5880 5879 5878 5877 5876 5875 5874 5873 5872 5871 5870 5869 5868 5867 5866 5866 5865 5864 5863 5862 5861 5861 5860 5859 5859
5882 5882 5882 5883 5883 5882 5882 5882 5882 5882 5882 5881 5881 5881 5880 5879 5879 5878 5877 5876 5875 5874 5873 5872 5871 5870 5869 5868 5867 5866 5865 5864 5863 5862 5861 5860 5859 5858 5857 5856 5856 5855 5854
5880 5880 5881 5881 5881 5881 5881 5881 5880 5880 5880 5879 5879 5878 5877 5877 5876 5875 5874 5873 5872 5871 5870 5869 5868 5866 5865 5864 5863 5862 5861 5860 5859 5858 5856 5855 5855 5854 5853 5852 5851 5851 5850
5879 5879 5879 5879 5879 5879 5879 5878 5878 5878 5877 5877 5876 5875 5875 5874 5873 5872 5871 5870 5869 5867 5866 5865 5864 5863 5861 5860 5859 5858 5857 5856 5854 5853 5852 5851 5850 5849 5848 5847 5847 5846 5845
5877 5877 5877 5877 5877 5877 5876 5876 5876 5875 5875 5874 5873 5872 5871 5870 5869 5868 5867 5866 5865 5864 5862 5861 5860 5859 5857 5856 5855 5854 5853 5851 5850 5849 5848 5846 5845 5844 5843 5843 5842 5841 5840
5875 5875 5875 5875 5875 5874 5874 5874 5873 5872 5872 5871 5870 5869 5868 5867 5866 5865 5864 5862 5861 5860 5858 5857 5856 5854 5853 5852 5851 5849 5848 5847 5845 5844 5843 5842 5840 5839 5838 5838 5837 5836 5835
5873 5873 5873 5872 5872 5872 5871 5871 5870 5869 5869 5868 5867 5866 5865 5864 5862 5861 5860 5858 5857 5856 5854 5853 5851 5850 5849 5847 5846 5844 5843 5841 5840 5839 5837 5836 5835 5834 5833 5832 5831 5830 5829
5870 5870 5870 5870 5869 5869 5868 5868 5867 5866 5865 5864 5863 5862 5861 5860 5859 5857 5856 5854 5853 5851 5850 5848 5847 5845 5844 5842 5841 5839 5838 5836 5835 5833 5832 5831 5829 5828 5827 5826 5825 5824 5823
5868 5868 5867 5867 5866 5866 5865 5864 5863 5862 5861 5860 5859 5858 5857 5856 5854 5853 5851 5850 5848 5847 5845 5843 5842 5840 5838 5837 5835 5833 5832 5830 5829 5827 5826 5824 5823 5822 5821 5820 5818 5817 5817
5865 5865 5864 5863 5863 5862 5861 5860 5859 5858 5857 5856 5855 5854 5853 5851 5850 5848 5847 5845 5844 5842 5840 5838 5837 5835 5833 5831 5829 5828 5826 5824 5822 5821 5819 5818 5816 5815 5814 5812 5811 5810 5809
5862 5861 5861 5860 5859 5858 5857 5856 5855 5854 5853 5852 5851 5850 5848 5847 5845 5844 5842 5840 5839 5837 5835 5833 5831 5829 5827 5825 5823 5821 5819 5818 5816 5814 5813 5811 5809 5808 5806 5805 5804 5802 5801
5858 5857 5857 5856 5855 5854 5853 5852 5851 5850 5849 5848 5846 5845 5843 5842 5840 5839 5837 5835 5833 5831 5829 5827 5825 5823 5821 5819 5817 5815 5813 5811 5809 5807 5806 5804 5802 5800 5799 5797 5796 5794 5793
5853 5853 5852 5851 5850 5849 5848 5847 5846 5845 5844 5843 5841 5840 5838 5837 5835 5833 5831 5829 5827 5825 5823 5821 5819 5817 5815 5812 5810 5808 5806 5804 5802 5800 5798 5796 5794 5792 5791 5789 5787 5786 5784
5848 5848 5847 5847 5846 5844 5843 5842 5841 5840 5839 5837 5836 5834 5833 5831 5829 5828 5826 5824 5822 5819 5817 5815 5813 5810 5808 5806 5803 5801 5798 5796 5794 5792 5790 5788 5786 5784 5782 5781 5779 5777 5776
5843 5842 5842 5841 5840 5839 5838 5837 5836 5835 5833 5832 5830 5829 5827 5825 5823 5822 5820 5818 5815 5813 5811 5809 5806 5804 5801 5799 5796 5793 5791 5788 5786 5784 5782 5780 5778 5776 5774 5772 5770 5768 5767
5837 5837 5836 5835 5834 5833 5832 5831 5830 5829 5827 5826 5824 5823 5821 5819 5817 5815 5813 5811 5809 5807 5804 5802 5799 5797 5794 5791 5788 5786 5783 5780 5778 5775 5773 5771 5769 5767 5765 5763 5761 5759 5758
5831 5831 5830 5829 5829 5827 5826 5825 5824 5822 5821 5819 5818 5816 5814 5813 5811 5809 5807 5804 5802 5800 5797 5795 5792 5789 5786 5784 5780 5778 5775 5772 5769 5766 5764 5762 5760 5758 5756 5754 5752 5750 5748
5825 5824 5823 5823 5822 5821 5820 5819 5817 5816 5814 5813 5811 5810 5808 5806 5804 5802 5800 5798 5795 5793 5790 5787 5785 5782 5779 5776 5772 5769 5766 5763 5760 5758 5755 5752 5750 5748 5745 5744 5741 5739 5737
5818 5817 5817 5816 5815 5814 5813 5812 5810 5809 5807 5806 5804 5803 5801 5799 5797 5795 5793 5790 5788 5785 5782 5780 5777 5774 5771 5767 5764 5761 5758 5754 5751 5748 5745 5743 5740 5737 5735 5733 5730 5728 5726
5811 5810 5809 5809 5808 5807 5806 5804 5803 5802 5800 5799 5797 5795 5794 5792 5790 5788 5786 5783 5780 5778 5775 5772 5769 5766 5762 5759 5756 5753 5749 5745 5742 5738 5735 5732 5729 5727 5724 5721 5719 5716 5714
5804 5803 5802 5801 5800 5799 5798 5797 5796 5795 5793 5791 5790 5788 5786 5785 5783 5780 5778 5775 5772 5770 5767 5763 5760 5757 5754 5750 5747 5744 5741 5738 5733 5729 5725 5721 5718 5715 5712 5709 5706 5703 5701
5796 5795 5794 5793 5793 5792 5790 5789 5788 5787 5785 5784 5782 5781 5779 5777 5775 5773 5770 5767 5764 5761 5758 5755 5751 5748 5745 5741 5737 5734 5731 5728 5725 5721 5716 5711 5707 5703 5700 5696 5693 5690 5687
5787 5787 5786 5785 5785 5784 5783 5782 5780 5779 5778 5777 5775 5773 5771 5769 5767 5764 5761 5759 5756 5752 5749 5746 5742 5738 5735 5731 5727 5723 5719 5716 5713 5712 5707 5702 5697 5692 5688 5684 5680 5676 5673
5778 5778 5778 5777 5776 5776 5775 5774 5772 5771 5770 5769 5767 5765 5763 5761 5758 5756 5753 5750 5747 5743 5740 5736 5732 5728 5724 5720 5716 5712 5708 5704 5700 5698 5696 5691 5686 5681 5676 5671 5667 5663 5659
5770 5770 5769 5769 5768 5767 5766 5765 5765 5764 5762 5761 5759 5757 5755 5752 5750 5747 5744 5741 5737 5733 5730 5726 5722 5718 5714 5709 5705 5701 5697 5693 5689 5685 5682 5678 5674 5669 5664 5658 5653 5648 5644